Regional Weather Roundup
Issued by NWS

Home | Current Version | Previous Version | Text Only | Print | Product List | Glossary Off
Versions: 1 2 3 4 5 6 7 8 9 10 11 12 13 14 15 16 17 18 19 20 21 22 23 24 25 26 27 28 29 30 31 32 33 34 35 36 37 38 39 40 41 42 43 44 45 46 47 48 49 50

529
ASUS43 KBIS 172110
RWRND

NORTH DAKOTA REGIONAL WEATHER ROUNDUP
NATIONAL WEATHER SERVICE BISMARCK ND
300 PM CST SUN DEC 17 2017

NOTE: "FAIR" INDICATES FEW OR NO CLOUDS BELOW 12,000 FEET WITH NO
SIGNIFICANT WEATHER AND/OR OBSTRUCTIONS TO VISIBILITY.


NDZ001>003-009>011-017-172200-
NORTHWEST NORTH DAKOTA

CITY           SKY/WX    TMP DP  RH WIND       PRES   REMARKS
WILLISTON      MOSUNNY   37  24  59 SW16      29.71F
MINOT          SUNNY     40  22  48 S13G24    29.74F
MINOT AFB      SUNNY     40  21  47 SW12      29.72F
$$

NDZ018>021-031>035-040>046-172200-
SOUTHWEST NORTH DAKOTA

CITY           SKY/WX    TMP DP  RH WIND       PRES   REMARKS
BISMARCK       SUNNY     42  21  43 SW10      29.84F
DICKINSON      MOSUNNY   40  25  55 SW18      29.75F
GARRISON         N/A     39  23  52 SW17      29.77F
HETTINGER ARPT CLOUDY    39  24  55 W15       29.82F
$$

NDZ004>008-012>016-024-026-027-054-172200-
NORTHEAST NORTH DAKOTA

CITY           SKY/WX    TMP DP  RH WIND       PRES   REMARKS
GRAND FORKS    SUNNY     27  21  78 SE9       29.87F WCI  18
GRND FRKS AFB  SUNNY     31  20  62 SW8       29.86F
DEVILS LAKE    SUNNY     33  24  69 SW8       29.83F
$$

NDZ022-023-025-028>030-036>039-047>053-172200-
SOUTHEAST NORTH DAKOTA

CITY           SKY/WX    TMP DP  RH WIND       PRES   REMARKS
FARGO          SUNNY     31  28  89 S8        29.91F
JAMESTOWN      SUNNY     38  26  62 SW9       29.86F
$$





USA.gov is the U.S. government's official web portal to all federal, state and local government web resources and services.